DW4221 Weather Reports


time (UTC)temp
F
wind
direction
speed
knots
gust
knots
rain 1hr
in
rain 24hr
in
rain mn
in
humidity
%
barometer
mb
20260905181607 68 109 0.9 2.6 0.00 0.01 0.00 88 1021.1
20260905180104 68 178 1.7 5.2 0.00 0.01 0.00 87 1021.2
20260905174610 68 177 0.9 4.3 0.00 0.01 0.00 88 1020.9
20260905173116 67 131 0.0 5.2 0.00 0.01 0.00 89 1021.0
20260905171624 67 0 0.0 3.5 0.00 0.01 0.00 91 1020.8
20260905164606 66 119 1.7 3.5 0.00 0.01 0.00 89 1021.1
20260905163115 66 121 0.9 3.5 0.00 0.01 0.00 89 1021.0
20260905161604 66 0 0.0 4.3 0.00 0.01 0.00 90 1021.1
20260905154618 64 0 0.9 5.2 0.00 0.01 0.00 92 1021.0
20260905153121 63 0 0.9 6.1 0.00 0.01 0.00 93 1020.8
20260905151605 63 61 0.0 2.6 0.00 0.01 0.00 93 1020.8
20260905150054 62 0 0.0 2.6 0.00 0.01 0.00 93 1021.0
20260905144603 62 13 1.7 4.3 0.00 0.01 0.00 94 1020.6
20260905143054 61 0 0.0 2.6 0.00 0.01 0.00 95 1020.6
20260905141551 61 0 0.9 2.6 0.00 0.01 0.00 95 1020.5
20260905140105 60 0 0.0 1.7 0.00 0.01 0.00 95 1020.6
20260905134601 60 129 0.9 2.6 0.00 0.01 0.00 96 1020.8
20260905133056 60 0 0.9 1.7 0.00 0.01 0.00 96 1020.8
20260905131610 60 0 0.0 1.7 0.00 0.01 0.00 96 1020.8
20260905124601 59 0 0.0 0.0 0.00 0.01 0.00 96 1020.6
20260905123109 59 0 0.0 0.0 0.00 0.01 0.00 96 1019.9
20260905121600 59 0 0.0 0.0 0.00 0.01 0.00 96 1019.8
20260905120104 59 0 0.0 0.0 0.00 0.01 0.00 95 1019.5
20260905114602 60 0 0.0 0.0 0.00 0.01 0.00 95 1019.2
20260905113057 60 0 0.0 0.0 0.00 0.01 0.00 96 1018.9
20260905111642 60 0 0.0 0.0 0.00 0.01 0.00 96 1018.9
20260905110051 60 0 0.0 0.0 0.00 0.01 0.00 96 1018.8
20260905104605 61 0 0.0 1.7 0.00 0.01 0.00 95 1018.9
20260905103104 61 0 0.0 2.6 0.00 0.01 0.00 96 1019.1
20260905101606 61 0 0.0 1.7 0.00 0.01 0.00 96 1019.1
20260905100100 61 0 0.0 2.6 0.00 0.01 0.00 97 1019.0
20260905094607 61 0 0.0 2.6 0.00 0.01 0.00 97 1018.9
20260905093055 61 0 0.0 2.6 0.00 0.01 0.00 97 1019.2
20260905091559 61 0 0.0 0.0 0.00 0.01 0.00 97 1019.2
20260905090055 61 0 0.0 0.9 0.00 0.01 0.00 96 1019.0
20260905084559 61 42 0.0 2.6 0.00 0.01 0.00 96 1019.1
20260905083103 62 115 0.0 1.7 0.00 0.01 0.00 96 1019.2
20260905081601 62 0 0.0 0.9 0.00 0.01 0.00 96 1019.1
20260905080106 62 0 0.0 0.0 0.00 0.01 0.00 96 1019.3
20260905074605 62 0 0.0 0.0 0.00 0.01 0.00 96 1019.2
20260905073104 62 0 0.0 0.0 0.00 0.01 0.00 96 1019.1
20260905071600 62 104 0.0 2.6 0.00 0.01 0.00 96 1019.1
20260905070101 62 0 0.0 1.7 0.00 0.01 0.00 96 1019.0
20260905064606 62 112 0.0 0.9 0.00 0.51 0.00 96 1019.1
20260905063103 62 0 0.0 2.6 0.00 0.51 0.00 95 1019.1
20260905061604 62 0 0.0 2.6 0.00 0.51 0.00 95 1019.1
20260905060058 62 102 0.0 2.6 0.00 0.51 0.00 95 1019.2
20260905054555 62 0 0.0 1.7 0.00 0.54 0.00 95 1019.2
20260905053111 62 0 0.0 3.5 0.00 0.54 0.00 95 1019.2
20260905051601 62 90 1.7 6.1 0.00 0.54 0.00 95 1019.1
20260905044555 62 80 0.0 3.5 0.00 0.54 0.54 95 1018.9
20260905043057 62 77 0.0 1.7 0.00 0.54 0.54 95 1018.7
20260905041606 62 0 0.0 1.7 0.00 0.54 0.54 95 1018.8
20260905040105 63 0 0.0 1.7 0.00 0.54 0.54 94 1018.9
20260905034619 63 0 0.0 0.0 0.00 0.54 0.54 94 1018.9
20260905033119 63 0 0.0 0.0 0.00 0.54 0.54 94 1019.1
20260905031614 63 0 0.0 0.0 0.00 0.54 0.54 94 1019.2
20260905030114 63 0 0.0 0.0 0.00 0.54 0.54 94 1019.1
20260905024605 63 0 0.0 0.0 0.00 0.55 0.54 94 1019.1
20260905023127 64 0 0.0 0.0 0.00 0.55 0.54 94 1019.2
20260905021605 64 0 0.0 0.0 0.00 0.55 0.54 94 1019.1
20260905014606 64 0 0.9 4.3 0.00 1.19 0.54 94 1018.7
20260905013103 64 0 0.0 5.2 0.00 1.19 0.54 94 1018.6
20260905011606 65 0 0.0 2.6 0.00 1.19 0.54 95 1018.3
20260905010112 65 0 0.0 2.6 0.00 1.19 0.54 94 1018.2
20260905004633 65 70 0.0 1.7 0.00 1.19 0.54 94 1017.9
20260905003124 66 0 0.0 1.7 0.00 1.19 0.54 93 1018.0
20260905001603 66 64 0.0 1.7 0.00 1.19 0.54 92 1018.0
20260905000123 66 0 0.0 1.7 0.00 1.19 0.54 92 1017.9
20260904234556 66 69 0.0 2.6 0.00 1.19 0.54 91 1017.9
20260904233105 66 0 0.0 0.0 0.00 1.19 0.54 91 1017.8
20260904231604 66 0 0.9 2.6 0.00 1.19 0.54 91 1017.7
20260904230114 66 0 0.0 1.7 0.00 1.19 0.54 91 1017.6
20260904224555 66 89 0.0 3.5 0.00 1.19 0.54 92 1017.7
20260904223057 66 134 0.0 2.6 0.00 1.19 0.54 92 1017.8
20260904221553 66 75 0.9 2.6 0.00 1.19 0.54 91 1017.7
20260904220053 66 0 0.9 3.5 0.00 1.19 0.54 91 1017.6
20260904214607 67 0 0.0 3.5 0.00 1.19 0.54 91 1017.5
20260904213108 67 0 0.9 3.5 0.00 1.19 0.54 90 1017.4
20260904211603 67 88 0.9 3.5 0.00 1.19 0.54 90 1017.3
20260904210104 67 0 0.9 5.2 0.00 1.19 0.54 90 1017.3
20260904204601 68 60 0.9 3.5 0.00 1.19 0.54 89 1017.2
20260904203057 67 0 0.9 2.6 0.00 1.19 0.54 90 1017.1
20260904201633 67 0 1.7 4.3 0.00 1.19 0.54 89 1017.1
20260904200107 67 0 0.0 3.5 0.00 1.19 0.54 90 1017.1
20260904194603 67 123 0.9 3.5 0.00 1.19 0.54 90 1016.8
20260904193056 67 24 0.0 3.5 0.01 1.19 0.54 90 1016.9
20260904191603 67 85 0.0 3.5 0.01 1.19 0.54 90 1016.8
20260904184553 66 83 0.9 3.5 0.01 1.19 0.54 92 1016.8
20260904183117 66 137 0.9 4.3 0.00 1.17 0.52 92 1016.8